Location: Schommer Observatory
(40.5200°N, 74.4500°W)
Time: 12:33:12
(UTC-05:00)

OTV 5 (USA 277) - Visible Passes

Search period start: 19 February 2018 00:00
Search period end: 01 March 2018 00:00
Orbit: 404 x 417 km, 43.0° (Epoch: 07 September)

Date Brightness Start Highest point End Pass type
(mag) Time Alt. Az. Time Alt. Az. Time Alt. Az.
19 Feb ? 06:13:21 10° SW 06:16:22 34° SSE 06:19:24 10° E visible
20 Feb ? 05:22:58 11° SSW 05:25:25 23° SSE 05:28:06 10° E visible
21 Feb ? 04:34:43 15° SE 04:34:43 15° SE 04:36:32 10° ESE visible
21 Feb ? 06:08:09 10° WSW 06:11:26 72° SSE 06:14:44 10° ENE visible
22 Feb ? 05:19:05 29° SW 05:20:25 50° SSE 05:23:37 10° E visible
23 Feb ? 04:30:34 26° ESE 04:30:34 26° ESE 04:32:27 10° E visible
23 Feb ? 06:03:20 10° W 06:06:37 68° NNW 06:09:54 10° ENE visible
24 Feb ? 05:14:44 48° W 05:15:32 85° NNW 05:18:50 10° ENE visible
25 Feb ? 04:26:04 28° E 04:26:04 28° E 04:27:46 10° ENE visible
25 Feb ? 05:58:49 11° W 06:01:54 53° N 06:05:08 10° ENE visible
26 Feb ? 05:10:07 46° NW 05:10:46 58° N 05:14:02 10° ENE visible
27 Feb ? 04:21:23 25° ENE 04:21:23 25° ENE 04:22:57 10° ENE visible
27 Feb ? 05:54:08 11° WNW 05:57:11 56° N 06:00:26 10° E visible
28 Feb ? 05:05:23 42° NW 05:06:04 52° N 05:09:18 10° E visible
